Regional Weather Roundup
Issued by NWS

Home | Current Version | Previous Version | Text Only | Print | Product List | Glossary On
Versions: 1 2 3 4 5 6 7 8 9 10 11 12 13 14 15 16 17 18 19 20 21 22 23 24 25 26 27 28 29 30 31 32 33 34 35 36 37 38 39 40 41 42 43 44 45 46 47 48 49 50
000
ASUS43 KDTX 230901
RWRMI
MICHIGAN HOURLY REGIONAL WEATHER ROUNDUP
NATIONAL WEATHER SERVICE DETROIT/PONTIAC MI
500 AM EDT MON APR 23 2018

NOTE: "FAIR" INDICATES FEW OR NO CLOUDS BELOW 12,000 FEET WITH NO
SIGNIFICANT WEATHER AND/OR OBSTRUCTION TO VISIBILITY.

MIZ047>049-052>055-059>063-066>070-074>076-081>083-231000-
SOUTHEAST LOWER MICHIGAN

CITY           SKY/WX    TMP DP  RH WIND       PRES   REMARKS
ADRIAN         FAIR      42  25  50 E12       30.23F
ANN ARBOR      FAIR      43  24  47 NE8       30.24F
BAD AXE        FAIR      42  22  45 E3        30.33S
CARO           FAIR      34  25  68 NE3       30.30F
DETROIT CITY   FAIR      43  26  51 E8        30.27F
DETROIT        FAIR      46  25  43 NE9       30.25F
FLINT          FAIR      36  25  64 E6        30.29F WCI  31
GROSSE ILE     FAIR      41  30  65 NE9       30.23F
HILLSDALE      FAIR      43  23  45 E10       30.21S
HOWELL         FAIR      37  27  67 NE5       30.25F WCI  33

CITY           SKY/WX    TMP DP  RH WIND       PRES   REMARKS
JACKSON        FAIR      38  26  62 NE3       30.24F
LAMBERTVILLE   FAIR      46  32  58 E5        30.23S
LANSING        FAIR      38  26  62 E6        30.27F WCI  33
LAPEER         FAIR      32  31  96 CALM      30.29F
MASON          FAIR      40  23  52 NE3       30.25F
MT. CLEMENS    FAIR      40  29  64 NE6         N/A
PONTIAC        FAIR      42  23  46 E5        30.26F
PORT HOPE        N/A     35  30  82 SE5       30.32F WCI  31
PORT HURON     FAIR      34  27  75 NE6       30.29S WCI  29
TRI CITIES     FAIR      35  29  78 NE7       30.31F WCI  29
MIDLAND        FAIR      28  28  96 CALM      30.31S
TROY           FAIR      45  22  40 NE8       30.29F
SAGINAW HB     FAIR      32  27  80 N6        30.31S WCI  26
$$
MIZ043>046-050>051-056>058-064>065-071>073-077>080-231000-
SOUTHWEST LOWER MICHIGAN

CITY           SKY/WX    TMP DP  RH WIND       PRES   REMARKS
BATTLE CREEK   FAIR      43  24  47 NE6       30.23F
BENTON HARBOR  FAIR      44  23  43 E6        30.21F
BIG RAPIDS     FAIR      32  25  76 CALM      30.30S
COLDWATER      FAIR      41  23  48 NE6       30.21F
HOLLAND        FAIR      42  27  55 NE6       30.25F
GRAND RAPIDS   FAIR      41  28  60 E8        30.26F
IONIA          FAIR      40  26  58 NE8       30.26F WCI  34
KALAMAZOO      FAIR      42  23  46 CALM      30.23F
LUDINGTON      FAIR      30  26  87 E3        30.29S
MARSHALL       FAIR      40  23  52 NE3       30.23F
MOUNT PLEASANT FAIR      37  30  77 N3        30.31S
MUSKEGON       FAIR      41  27  57 NE7       30.28S
SOUTH HAVEN    FAIR      43  24  46 E6        30.22F
$$
MIZ016>042-231000-
NORTHERN LOWER MICHIGAN

CITY           SKY/WX    TMP DP  RH WIND       PRES   REMARKS
ALPENA         FAIR      27  24  89 CALM      30.35S
BEAVER ISLAND  FAIR      45  18  34 S6        30.31S
BELLAIRE       FAIR      28  26  93 CALM      30.32S
CADILLAC       FAIR      29  23  78 CALM      30.30S
CHARLEVOIX     FAIR      32  24  70 SE3       30.34F
FRANKFORT      FAIR      36  26  65 CALM      30.29S
GAYLORD        FAIR      33  19  56 CALM      30.32S
HARBOR SPRINGS FAIR      31  25  76 E6        30.32S WCI  26
HOUGHTON LAKE  FAIR      30  26  85 CALM      30.32S
MANISTEE       FAIR      28  26  92 E7        30.30R WCI  21
OSCODA         FAIR      26  21  80 CALM      30.34S
PELLSTON       FAIR      27  22  81 CALM      30.33S
ROGERS CITY    FAIR      39  22  50 S6        30.35S WCI  34
TRAVERSE CITY  FAIR      32  27  81 CALM      30.30F
$$
MIZ007>008-015-231000-
EASTERN UPPER MICHIGAN

CITY           SKY/WX    TMP DP  RH WIND       PRES   REMARKS
KINROSS        FAIR      33  19  56 SE5       30.33S WCI  29
MACKINAC ISLAN FAIR      42  16  35 SE10      30.32S
NEWBERRY       FAIR      38  19  47 S7        30.30S WCI  33
S. S. MARIE    FAIR      35  21  56 E3        30.32S
MUNISING         N/A     37  20  50 S8        30.27F WCI  31
$$
MIZ004>006-011>014-085-231000-
CENTRAL UPPER MICHIGAN

CITY           SKY/WX    TMP DP  RH WIND       PRES   REMARKS
MANISTIQUE     FAIR      31  26  83 CALM      30.29F
ESCANABA       FAIR      26  23  88 CALM      30.30S
MENOMINEE      FAIR      29  26  89 CALM      30.30S
SAWYER-GWINN   FAIR      31  19  62 S3        30.28S
$$
MIZ001>003-009>011-084-231000-
WESTERN UPPER MICHIGAN

CITY           SKY/WX    TMP DP  RH WIND       PRES   REMARKS
IRON MOUNTAIN  FAIR      27  20  75 CALM      30.28R
HOUGHTON       FAIR      43  21  41 SW5       30.21F
COPPER HARBOR    N/A     45  21  38 SW9G17    30.20F
IRONWOOD       FAIR      45  21  38 VRB6      30.24S
$$

ABBREVIATIONS USED IN REMARKS
   TC - TEMPERATURE IN CELSIUS
  WCI - WIND CHILL INDEX
   HX - HEAT INDEX
  VSB - VISIBILITY





USA.gov is the U.S. government's official web portal to all federal, state and local government web resources and services.